Time,TemperatureF,DewpointF,PressureIn,WindDirection,WindDirectionDegrees,WindSpeedMPH,WindSpeedGustMPH,Humidity,HourlyPrecipIn,Conditions,Clouds,dailyrainin,SoftwareType,DateUTC
2013-04-11 08:33:00,22.0,13.0,26.43,West,278,5.0,9.0,69,0.00,,,0.00,,2013-04-11 14:33:00,
2013-04-11 08:43:00,22.0,13.0,26.43,West,278,5.0,9.0,69,0.00,,,0.00,,2013-04-11 14:43:00,
2013-04-11 08:53:00,24.0,16.0,26.44,ESE,107,4.0,7.0,70,0.00,,,0.00,,2013-04-11 14:53:00,
2013-04-11 09:02:00,26.0,17.0,26.43,NNE,25,4.0,10.0,69,0.00,,,0.00,,2013-04-11 15:02:00,
2013-04-11 09:12:00,26.0,17.0,26.43,NNE,25,4.0,10.0,69,0.00,,,0.00,,2013-04-11 15:12:00,
2013-04-11 09:22:00,26.0,17.0,26.43,NNE,25,4.0,10.0,69,0.00,,,0.00,,2013-04-11 15:22:00,
2013-04-11 09:32:00,24.0,15.0,26.44,ENE,68,7.0,11.0,67,0.00,,,0.00,,2013-04-11 15:32:00,
2013-04-11 09:43:00,24.0,15.0,26.44,ENE,68,7.0,11.0,67,0.00,,,0.00,,2013-04-11 15:43:00,
2013-04-11 09:53:00,24.0,15.0,26.44,NE,38,8.0,13.0,69,0.00,,,0.00,,2013-04-11 15:53:00,
2013-04-11 10:02:00,24.0,15.0,26.44,North,5,9.0,13.0,69,0.00,,,0.00,,2013-04-11 16:02:00,
2013-04-11 10:12:00,24.0,15.0,26.44,North,5,9.0,13.0,69,0.00,,,0.00,,2013-04-11 16:12:00,
2013-04-11 10:23:00,24.0,16.0,26.45,NE,44,8.0,14.0,70,0.00,,,0.00,,2013-04-11 16:23:00,
2013-04-11 10:32:00,25.0,17.0,26.45,NE,37,7.0,10.0,72,0.00,,,0.00,,2013-04-11 16:32:00,
2013-04-11 10:42:00,25.0,18.0,26.44,NNW,336,7.0,11.0,73,0.00,,,0.00,,2013-04-11 16:42:00,
2013-04-11 10:53:00,25.0,18.0,26.44,NNW,336,7.0,11.0,73,0.00,,,0.00,,2013-04-11 16:53:00,
2013-04-11 11:02:00,26.0,19.0,26.45,NNE,19,7.0,14.0,73,0.00,,,0.00,,2013-04-11 17:02:00,
2013-04-11 11:12:00,26.0,19.0,26.45,NNE,19,7.0,14.0,73,0.00,,,0.00,,2013-04-11 17:12:00,
2013-04-11 11:23:00,27.0,19.0,26.45,NW,325,8.0,13.0,72,0.00,,,0.00,,2013-04-11 17:23:00,
2013-04-11 11:32:00,28.0,20.0,26.44,North,355,8.0,14.0,71,0.00,,,0.00,,2013-04-11 17:32:00,
2013-04-11 11:42:00,28.0,20.0,26.44,North,355,8.0,14.0,71,0.00,,,0.00,,2013-04-11 17:42:00,
2013-04-11 11:53:00,28.0,20.0,26.43,NNE,25,6.0,13.0,70,0.00,,,0.00,,2013-04-11 17:53:00,
2013-04-11 12:02:00,28.0,19.0,26.42,North,360,10.0,14.0,69,0.00,,,0.00,,2013-04-11 18:02:00,
2013-04-11 12:13:00,28.0,19.0,26.42,North,360,10.0,14.0,69,0.00,,,0.00,,2013-04-11 18:13:00,
2013-04-11 12:23:00,29.0,20.0,26.42,North,360,11.0,14.0,68,0.00,,,0.00,,2013-04-11 18:23:00,
2013-04-11 12:32:00,29.0,20.0,26.41,East,100,6.0,16.0,68,0.00,,,0.00,,2013-04-11 18:32:00,
2013-04-11 12:42:00,29.0,20.0,26.41,East,100,6.0,16.0,68,0.00,,,0.00,,2013-04-11 18:42:00,
2013-04-11 12:53:00,30.0,19.0,26.41,NE,40,10.0,14.0,64,0.00,,,0.00,,2013-04-11 18:53:00,
2013-04-11 13:03:00,29.0,19.0,26.41,NE,41,13.0,18.0,65,0.00,,,0.00,,2013-04-11 19:03:00,
2013-04-11 13:13:00,29.0,19.0,26.41,NE,41,13.0,18.0,65,0.00,,,0.00,,2013-04-11 19:13:00,
2013-04-11 13:22:00,30.0,20.0,26.40,North,360,10.0,16.0,66,0.00,,,0.00,,2013-04-11 19:22:00,
2013-04-11 13:32:00,30.0,20.0,26.39,ENE,75,10.0,20.0,67,0.00,,,0.00,,2013-04-11 19:32:00,
2013-04-11 13:42:00,30.0,20.0,26.39,ENE,75,10.0,20.0,67,0.00,,,0.00,,2013-04-11 19:42:00,
2013-04-11 13:53:00,31.0,22.0,26.40,North,5,9.0,16.0,68,0.00,,,0.00,,2013-04-11 19:53:00,
2013-04-11 14:02:00,30.0,20.0,26.40,NE,46,11.0,19.0,67,0.00,,,0.00,,2013-04-11 20:02:00,
2013-04-11 14:13:00,30.0,20.0,26.40,NE,46,11.0,19.0,67,0.00,,,0.00,,2013-04-11 20:13:00,
2013-04-11 14:22:00,31.0,22.0,26.40,NNE,29,8.0,19.0,68,0.00,,,0.00,,2013-04-11 20:22:00,
2013-04-11 14:33:00,30.0,21.0,26.41,NNE,25,11.0,19.0,68,0.00,,,0.00,,2013-04-11 20:33:00,
2013-04-11 14:42:00,30.0,21.0,26.41,NNE,25,11.0,19.0,68,0.00,,,0.00,,2013-04-11 20:42:00,
2013-04-11 14:52:00,29.0,20.0,26.41,NE,42,12.0,19.0,69,0.00,,,0.00,,2013-04-11 20:52:00,
2013-04-11 15:02:00,29.0,21.0,26.41,NE,34,7.0,16.0,72,0.00,,,0.00,,2013-04-11 21:02:00,
2013-04-11 15:12:00,29.0,21.0,26.41,NE,34,7.0,16.0,72,0.00,,,0.00,,2013-04-11 21:12:00,
2013-04-11 15:22:00,29.0,21.0,26.41,ENE,70,11.0,16.0,72,0.00,,,0.00,,2013-04-11 21:22:00,
2013-04-11 15:33:00,29.0,21.0,26.41,ENE,65,9.0,15.0,73,0.00,,,0.00,,2013-04-11 21:33:00,
2013-04-11 15:42:00,29.0,21.0,26.41,ENE,65,9.0,15.0,73,0.00,,,0.00,,2013-04-11 21:42:00,
2013-04-11 15:54:00,29.0,22.0,26.42,NNE,23,10.0,18.0,74,0.00,,,0.00,,2013-04-11 21:54:00,
2013-04-11 16:03:00,29.0,22.0,26.42,NE,40,10.0,23.0,75,0.00,,,0.00,,2013-04-11 22:03:00,
2013-04-11 16:13:00,29.0,22.0,26.42,NE,40,10.0,23.0,75,0.00,,,0.00,,2013-04-11 22:13:00,
2013-04-11 16:23:00,29.0,22.0,26.42,NE,42,9.0,14.0,74,0.00,,,0.00,,2013-04-11 22:23:00,
2013-04-11 16:33:00,30.0,22.0,26.42,North,10,8.0,16.0,72,0.00,,,0.00,,2013-04-11 22:33:00,
2013-04-11 16:44:00,30.0,22.0,26.42,North,10,8.0,16.0,72,0.00,,,0.00,,2013-04-11 22:44:00,
2013-04-11 16:53:00,30.0,22.0,26.42,NNW,340,7.0,19.0,71,0.00,,,0.00,,2013-04-11 22:53:00,
2013-04-11 17:03:00,30.0,21.0,26.43,North,360,8.0,14.0,70,0.00,,,0.00,,2013-04-11 23:03:00,
2013-04-11 17:12:00,30.0,21.0,26.43,North,360,8.0,14.0,70,0.00,,,0.00,,2013-04-11 23:12:00,
2013-04-11 17:23:00,31.0,22.0,26.43,NE,44,9.0,14.0,68,0.00,,,0.00,,2013-04-11 23:23:00,
2013-04-11 17:32:00,31.0,22.0,26.43,NNW,331,9.0,16.0,68,0.00,,,0.00,,2013-04-11 23:32:00,
2013-04-11 17:42:00,31.0,22.0,26.43,NNW,331,9.0,16.0,68,0.00,,,0.00,,2013-04-11 23:42:00,
2013-04-11 17:53:00,31.0,23.0,26.43,NNW,348,9.0,18.0,72,0.00,,,0.00,,2013-04-11 23:53:00,
2013-04-11 18:02:00,31.0,21.0,26.43,NNE,21,9.0,16.0,67,0.00,,,0.00,,2013-04-12 00:02:00,
2013-04-11 18:12:00,31.0,21.0,26.43,NNE,21,9.0,16.0,67,0.00,,,0.00,,2013-04-12 00:12:00,
2013-04-11 18:22:00,31.0,21.0,26.43,NW,322,10.0,15.0,67,0.00,,,0.00,,2013-04-12 00:22:00,
2013-04-11 18:32:00,31.0,23.0,26.43,NNE,22,10.0,15.0,71,0.00,,,0.00,,2013-04-12 00:32:00,
2013-04-11 18:42:00,31.0,23.0,26.43,NNE,22,10.0,15.0,71,0.00,,,0.00,,2013-04-12 00:42:00,
2013-04-11 18:53:00,31.0,24.0,26.43,NE,56,11.0,19.0,75,0.00,,,0.00,,2013-04-12 00:53:00,
2013-04-11 19:02:00,31.0,25.0,26.43,NNE,30,13.0,20.0,78,0.00,,,0.00,,2013-04-12 01:02:00,
2013-04-11 19:12:00,31.0,25.0,26.43,NNE,30,13.0,20.0,78,0.00,,,0.00,,2013-04-12 01:12:00,
2013-04-11 19:22:00,31.0,25.0,26.43,NE,47,10.0,22.0,79,0.00,,,0.00,,2013-04-12 01:22:00,
2013-04-11 19:32:00,32.0,27.0,26.44,North,360,10.0,15.0,80,0.00,,,0.00,,2013-04-12 01:32:00,
2013-04-11 19:42:00,32.0,27.0,26.44,North,360,10.0,15.0,80,0.00,,,0.00,,2013-04-12 01:42:00,
2013-04-11 19:52:00,32.0,27.0,26.44,NNE,29,9.0,15.0,80,0.00,,,0.00,,2013-04-12 01:52:00,
2013-04-11 20:03:00,31.0,26.0,26.44,ENE,62,10.0,15.0,81,0.00,,,0.00,,2013-04-12 02:03:00,
2013-04-11 20:12:00,31.0,26.0,26.44,ENE,62,10.0,15.0,81,0.00,,,0.00,,2013-04-12 02:12:00,
2013-04-11 20:22:00,32.0,27.0,26.45,NE,53,9.0,16.0,81,0.00,,,0.00,,2013-04-12 02:22:00,
2013-04-11 20:32:00,32.0,27.0,26.46,NNW,336,11.0,18.0,81,0.00,,,0.00,,2013-04-12 02:32:00,
2013-04-11 20:42:00,32.0,27.0,26.46,NNW,336,11.0,18.0,81,0.00,,,0.00,,2013-04-12 02:42:00,
2013-04-11 20:52:00,32.0,27.0,26.46,North,349,8.0,13.0,80,0.00,,,0.00,,2013-04-12 02:52:00,
2013-04-11 21:02:00,32.0,27.0,26.46,North,355,9.0,13.0,80,0.00,,,0.00,,2013-04-12 03:02:00,
2013-04-11 21:12:00,32.0,27.0,26.46,North,355,9.0,13.0,80,0.00,,,0.00,,2013-04-12 03:12:00,
2013-04-11 21:22:00,32.0,27.0,26.46,NNW,330,7.0,12.0,81,0.00,,,0.00,,2013-04-12 03:22:00,
2013-04-11 21:33:00,33.0,28.0,26.47,NNW,327,9.0,14.0,82,0.00,,,0.00,,2013-04-12 03:33:00,
2013-04-11 21:43:00,33.0,28.0,26.47,NNW,327,9.0,14.0,82,0.00,,,0.00,,2013-04-12 03:43:00,
2013-04-11 21:53:00,32.0,27.0,26.47,NW,326,7.0,16.0,83,0.00,,,0.00,,2013-04-12 03:53:00,
2013-04-11 22:03:00,32.0,28.0,26.47,North,360,8.0,14.0,84,0.00,,,0.00,,2013-04-12 04:03:00,
2013-04-11 22:13:00,32.0,28.0,26.47,North,360,8.0,14.0,84,0.00,,,0.00,,2013-04-12 04:13:00,
2013-04-11 22:23:00,32.0,28.0,26.47,North,355,8.0,13.0,84,0.00,,,0.00,,2013-04-12 04:23:00,
2013-04-11 22:33:00,32.0,28.0,26.47,NNW,336,5.0,9.0,85,0.00,,,0.00,,2013-04-12 04:33:00,
2013-04-11 22:43:00,32.0,28.0,26.47,NNW,336,5.0,9.0,85,0.00,,,0.00,,2013-04-12 04:43:00,
2013-04-11 22:53:00,32.0,28.0,26.47,NE,44,4.0,8.0,85,0.00,,,0.00,,2013-04-12 04:53:00,
2013-04-11 23:03:00,32.0,28.0,26.47,NNE,15,3.0,9.0,86,0.00,,,0.00,,2013-04-12 05:03:00,
2013-04-11 23:12:00,32.0,28.0,26.47,NNE,15,3.0,9.0,86,0.00,,,0.00,,2013-04-12 05:12:00,
2013-04-11 23:22:00,32.0,28.0,26.47,NE,45,5.0,10.0,86,0.00,,,0.00,,2013-04-12 05:22:00,
2013-04-11 23:32:00,32.0,29.0,26.47,NE,34,5.0,8.0,87,0.00,,,0.00,,2013-04-12 05:32:00,
2013-04-11 23:42:00,32.0,29.0,26.47,NE,34,5.0,8.0,87,0.00,,,0.00,,2013-04-12 05:42:00,
2013-04-11 23:52:00,33.0,30.0,26.47,North,10,0.0,4.0,87,0.00,,,0.00,,2013-04-12 05:52:00,